GW0931 Weather Reports


time (UTC)temp
C
wind
direction
speed
KPH
gust
KPH
rain 1hr
cm
rain 24hr
cm
rain mn
cm
humidity
%
barometer
mb
20260505041523 25 176 0.0 4.8 0.00 0.00 0.00 91 1014.6
20260505040038 25 246 0.0 3.2 0.00 0.00 0.00 90 1014.6
20260505034610 25 82 0.0 1.6 0.00 0.00 0.00 90 1014.6
20260505033058 26 82 0.0 0.0 0.00 0.00 0.00 90 1014.7
20260505031503 26 82 0.0 1.6 0.00 0.00 0.00 89 1014.7
20260505030006 26 82 0.0 0.0 0.00 0.00 0.00 89 1014.8
20260505024526 26 82 0.0 1.6 0.00 0.00 0.00 89 1014.7
20260505023046 26 82 0.0 1.6 0.00 0.00 0.00 89 1014.7
20260505021601 26 82 0.0 1.6 0.00 0.00 0.00 88 1014.6
20260505014603 26 84 1.6 4.8 0.00 0.00 0.00 88 1014.5
20260505013003 26 75 0.0 3.2 0.00 0.00 0.00 88 1014.4
20260505011505 26 72 0.0 1.6 0.00 0.00 0.00 88 1014.3
20260505010026 26 70 0.0 1.6 0.00 0.00 0.00 88 1014.2
20260505004536 26 69 0.0 3.2 0.00 0.00 0.00 88 1014.0
20260505003037 26 67 0.0 3.2 0.00 0.00 0.00 87 1013.7
20260505001603 26 91 0.0 4.8 0.00 0.00 0.00 87 1013.7
20260505000110 26 80 0.0 4.8 0.00 0.00 0.00 87 1013.6
20260504234506 26 68 0.0 3.2 0.00 0.00 0.00 86 1013.5
20260504233027 27 75 0.0 1.6 0.00 0.00 0.00 84 1013.4
20260504231537 27 74 0.0 4.8 0.00 0.00 0.00 83 1013.4
20260504230039 27 45 0.0 4.8 0.00 0.00 0.00 83 1013.3
20260504224542 27 60 3.2 6.4 0.00 0.00 0.00 83 1013.2
20260504223044 27 77 0.0 4.8 0.00 0.00 0.00 83 1013.1
20260504221544 27 296 0.0 9.7 0.00 0.00 0.00 83 1013.0
20260504220048 27 73 3.2 8.0 0.00 0.00 0.00 82 1012.9
20260504214606 28 75 1.6 9.7 0.00 0.00 0.00 81 1012.7
20260504213016 28 68 3.2 12.9 0.00 0.00 0.00 80 1012.4
20260504211516 28 55 1.6 8.0 0.00 0.00 0.00 81 1012.4
20260504210036 28 59 3.2 9.7 0.00 0.00 0.00 80 1012.4
20260504204542 28 32 3.2 9.7 0.00 0.00 0.00 79 1012.4
20260504203058 29 342 1.6 4.8 0.00 0.00 0.00 79 1012.3
20260504201554 28 53 1.6 12.9 0.00 0.00 0.00 80 1012.4
20260504200003 29 60 3.2 8.0 0.00 0.00 0.00 76 1012.3
20260504194503 30 304 1.6 4.8 0.00 0.00 0.00 77 1012.3
20260504193004 29 45 1.6 8.0 0.00 0.00 0.00 77 1012.6
20260504191507 30 56 1.6 6.4 0.00 0.00 0.00 77 1012.7
20260504190005 30 312 1.6 8.0 0.00 0.00 0.00 76 1012.6
20260504184527 30 297 1.6 6.4 0.00 0.00 0.00 76 1012.8
20260504183028 30 68 3.2 9.7 0.00 0.00 0.00 79 1012.7
20260504181538 30 72 3.2 12.9 0.00 0.00 0.00 78 1013.0
20260504180049 30 41 3.2 11.3 0.00 0.00 0.00 75 1013.0
20260504174559 30 70 3.2 8.0 0.00 0.00 0.00 76 1013.3
20260504173108 30 77 3.2 11.3 0.00 0.00 0.00 75 1013.4
20260504171531 30 75 3.2 12.9 0.00 0.00 0.00 76 1013.6
20260504081551 23 113 3.2 9.7 0.00 0.00 0.00 84 1013.2